T1DES 1 (DRAGOON 1) (64542 NORAD) Tracking and Keplerian Element Data

This shows tracking and keplerian element data for the satellite.

Feedback or suggestion? Click here.




ElementValue
Catalog64542
NameT1DES 1 (DRAGOON 1)
Epoch Orbit2752
Epoch Day353.26621292
Epoch Year2025
RAAN105.3426
Inclination97.4582
Eccentricity0.000436
Argument of Perigee89.8469
Mean Anonmoly270.3267
Mean Motion15.21457469
Decay Rate9.116E-05
L11 64542U 25135Q 25353.26621292 .00009116 00000+0 40849-3 0 9999
L22 64542 97.4582 105.3426 0004360 89.8469 270.3267 15.21457469 27523



Live tracking and technical data element details for T1DES 1 (DRAGOON 1) (NORAD 64542). T1DES 1 (DRAGOON 1) can be tracked NOW for your location showing map with azimuth and elevation plus other details from your city location.







IsCatalogInMostPopularTable: catalog: 64542, numindb: 11
Update: records affected: 1



GetName: 64542 T1DES 1 (DRAGOON 1)

Hit Count: updated at: Tue, 21 Apr 2026 19:04:02 GMT